Location: Il Ritiro
(43.4167°N, 13.1333°E)
Time: 01:38:37
(UTC+00:00)

Cosmos 1420 Rocket - Pass Details

Date: 05 July 2020
Orbit: 754 x 781 km, 74.0° (Epoch: 11 August)

Event Time Altitude Azimuth Distance (km) Brightness Sun altitude
Rises 22:52:06 0° 338° (NNW) 3,250 8.5 -23.8°
Reaches altitude 10° 22:54:29 10° 338° (NNW) 2,324 7.5 -23.8°
Maximum altitude 22:59:46 85° 252° (WSW) 784 3.9 -23.9°
Enters shadow 23:00:34 65° 172° (S) 851 3.9 -23.9°
